Time,TemperatureF,DewpointF,PressureIn,WindDirection,WindDirectionDegrees,WindSpeedMPH,WindSpeedGustMPH,Humidity,HourlyPrecipIn,Conditions,Clouds,dailyrainin,SoftwareType,DateUTC
2013-06-07 00:03:00,78.0,75.0,29.87,SSW,203,0.0,0.0,90,0.00,,,0.65,,2013-06-07 04:03:00,
2013-06-07 00:12:00,78.0,75.0,29.87,SSW,203,0.0,0.0,90,0.00,,,0.65,,2013-06-07 04:12:00,
2013-06-07 00:23:00,79.0,76.0,29.86,SSW,200,0.0,0.0,90,0.00,,,0.65,,2013-06-07 04:23:00,
2013-06-07 00:33:00,79.0,76.0,29.86,SSW,192,0.0,0.0,90,0.00,,,0.65,,2013-06-07 04:33:00,
2013-06-07 00:42:00,79.0,76.0,29.86,SSW,192,0.0,0.0,90,0.00,,,0.65,,2013-06-07 04:42:00,
2013-06-07 00:53:00,79.0,76.0,29.85,WSW,250,0.0,0.0,91,0.00,,,0.65,,2013-06-07 04:53:00,
2013-06-07 01:03:00,79.0,76.0,29.86,WSW,239,0.0,0.0,91,0.00,,,0.65,,2013-06-07 05:03:00,
2013-06-07 01:12:00,79.0,76.0,29.86,WSW,239,0.0,0.0,91,0.00,,,0.65,,2013-06-07 05:12:00,
2013-06-07 01:22:00,79.0,76.0,29.85,SW,225,0.0,0.0,92,0.00,,,0.65,,2013-06-07 05:22:00,
2013-06-07 01:32:00,79.0,76.0,29.85,SSW,212,0.0,0.0,92,0.00,,,0.65,,2013-06-07 05:32:00,
2013-06-07 01:42:00,79.0,76.0,29.85,SSW,212,0.0,0.0,92,0.00,,,0.65,,2013-06-07 05:42:00,
2013-06-07 01:52:00,79.0,76.0,29.85,SSW,202,0.0,0.0,91,0.00,,,0.65,,2013-06-07 05:52:00,
2013-06-07 02:02:00,79.0,76.0,29.85,West,259,0.0,0.0,90,0.00,,,0.65,,2013-06-07 06:02:00,
2013-06-07 02:12:00,79.0,76.0,29.85,West,259,0.0,0.0,90,0.00,,,0.65,,2013-06-07 06:12:00,
2013-06-07 02:22:00,79.0,76.0,29.85,SSW,204,0.0,0.0,90,0.00,,,0.60,,2013-06-07 06:22:00,
2013-06-07 02:32:00,79.0,76.0,29.85,SW,227,0.0,0.0,91,0.00,,,0.60,,2013-06-07 06:32:00,
2013-06-07 02:42:00,79.0,76.0,29.85,SW,227,0.0,0.0,91,0.00,,,0.60,,2013-06-07 06:42:00,
2013-06-07 02:52:00,79.0,76.0,29.85,WSW,238,0.0,0.0,91,0.00,,,0.60,,2013-06-07 06:52:00,
2013-06-07 03:02:00,79.0,76.0,29.85,SW,219,0.0,0.0,91,0.00,,,0.60,,2013-06-07 07:02:00,
2013-06-07 03:12:00,79.0,76.0,29.85,SW,219,0.0,0.0,91,0.00,,,0.60,,2013-06-07 07:12:00,
2013-06-07 03:22:00,79.0,76.0,29.84,SW,229,0.0,0.0,90,0.00,,,0.59,,2013-06-07 07:22:00,
2013-06-07 03:32:00,80.0,77.0,29.85,SSW,204,0.0,0.0,90,0.00,,,0.59,,2013-06-07 07:32:00,
2013-06-07 03:42:00,80.0,77.0,29.85,SSW,204,0.0,0.0,90,0.00,,,0.59,,2013-06-07 07:42:00,
2013-06-07 03:52:00,80.0,77.0,29.85,SW,219,0.0,0.0,91,0.00,,,0.59,,2013-06-07 07:52:00,
2013-06-07 04:02:00,80.0,77.0,29.84,SSW,202,0.0,0.0,91,0.00,,,0.59,,2013-06-07 08:02:00,
2013-06-07 04:12:00,80.0,77.0,29.84,SSW,202,0.0,0.0,91,0.00,,,0.59,,2013-06-07 08:12:00,
2013-06-07 04:22:00,80.0,77.0,29.85,SSW,196,0.0,0.0,91,0.00,,,0.57,,2013-06-07 08:22:00,
2013-06-07 04:32:00,80.0,77.0,29.84,SSW,209,0.0,0.0,91,0.00,,,0.57,,2013-06-07 08:32:00,
2013-06-07 04:43:00,80.0,77.0,29.84,SSW,209,0.0,0.0,91,0.00,,,0.57,,2013-06-07 08:43:00,
2013-06-07 04:52:00,80.0,77.0,29.85,SW,223,0.0,0.0,90,0.00,,,0.57,,2013-06-07 08:52:00,
2013-06-07 05:02:00,80.0,77.0,29.85,SSW,209,0.0,0.0,91,0.00,,,0.57,,2013-06-07 09:02:00,
2013-06-07 05:12:00,80.0,77.0,29.85,SSW,209,0.0,0.0,91,0.00,,,0.57,,2013-06-07 09:12:00,
2013-06-07 05:22:00,80.0,76.0,29.86,South,182,0.0,0.0,89,0.00,,,0.56,,2013-06-07 09:22:00,
2013-06-07 05:32:00,80.0,76.0,29.87,SSW,198,0.0,0.0,89,0.00,,,0.56,,2013-06-07 09:32:00,
2013-06-07 05:43:00,80.0,76.0,29.87,SSW,198,0.0,0.0,89,0.00,,,0.56,,2013-06-07 09:43:00,
2013-06-07 05:53:00,80.0,77.0,29.88,South,188,0.0,0.0,90,0.00,,,0.56,,2013-06-07 09:53:00,
2013-06-07 06:02:00,81.0,78.0,29.88,SSW,197,0.0,0.0,90,0.00,,,0.56,,2013-06-07 10:02:00,
2013-06-07 06:13:00,81.0,78.0,29.88,SSW,197,0.0,0.0,90,0.00,,,0.56,,2013-06-07 10:13:00,
2013-06-07 06:23:00,80.0,77.0,29.88,SSW,206,0.0,0.0,90,0.00,,,0.56,,2013-06-07 10:23:00,
2013-06-07 06:33:00,80.0,77.0,29.88,SW,217,0.0,0.0,90,0.00,,,0.56,,2013-06-07 10:33:00,
2013-06-07 06:42:00,80.0,77.0,29.88,SW,217,0.0,0.0,90,0.00,,,0.56,,2013-06-07 10:42:00,
2013-06-07 06:53:00,80.0,77.0,29.90,SW,224,0.0,0.0,90,0.00,,,0.56,,2013-06-07 10:53:00,
2013-06-07 07:02:00,81.0,78.0,29.91,SSW,213,0.0,0.0,90,0.00,,,0.56,,2013-06-07 11:02:00,
2013-06-07 07:12:00,81.0,78.0,29.91,SSW,213,0.0,0.0,90,0.00,,,0.56,,2013-06-07 11:12:00,
2013-06-07 07:22:00,80.0,77.0,29.91,SSW,200,0.0,0.0,91,0.00,,,0.56,,2013-06-07 11:22:00,
2013-06-07 07:32:00,80.0,77.0,29.91,SSW,200,0.0,0.0,91,0.00,,,0.56,,2013-06-07 11:32:00,
2013-06-07 07:42:00,80.0,77.0,29.91,SSW,200,0.0,0.0,91,0.00,,,0.56,,2013-06-07 11:42:00,
2013-06-07 07:52:00,81.0,78.0,29.91,South,180,0.0,0.0,92,0.00,,,0.56,,2013-06-07 11:52:00,
2013-06-07 08:02:00,81.0,78.0,29.91,South,183,0.0,0.0,92,0.00,,,0.56,,2013-06-07 12:02:00,
2013-06-07 08:13:00,81.0,78.0,29.91,South,183,0.0,0.0,92,0.00,,,0.56,,2013-06-07 12:13:00,
2013-06-07 08:22:00,81.0,78.0,29.91,South,175,0.0,0.0,92,0.00,,,0.55,,2013-06-07 12:22:00,
2013-06-07 08:32:00,81.0,78.0,29.91,South,173,0.0,0.0,92,0.00,,,0.55,,2013-06-07 12:32:00,
2013-06-07 08:42:00,81.0,78.0,29.91,South,173,0.0,0.0,92,0.00,,,0.55,,2013-06-07 12:42:00,
2013-06-07 08:52:00,81.0,79.0,29.91,South,176,0.0,0.0,93,0.00,,,0.55,,2013-06-07 12:52:00,
2013-06-07 09:02:00,81.0,79.0,29.91,South,169,0.0,0.0,93,0.00,,,0.55,,2013-06-07 13:02:00,
2013-06-07 09:13:00,81.0,79.0,29.91,South,169,0.0,0.0,93,0.00,,,0.55,,2013-06-07 13:13:00,
2013-06-07 09:22:00,81.0,78.0,29.91,SSW,199,0.0,0.0,92,0.00,,,0.55,,2013-06-07 13:22:00,
2013-06-07 09:32:00,81.0,78.0,29.91,South,177,0.0,0.0,92,0.00,,,0.55,,2013-06-07 13:32:00,
2013-06-07 09:42:00,81.0,78.0,29.91,South,177,0.0,0.0,92,0.00,,,0.55,,2013-06-07 13:42:00,
2013-06-07 09:52:00,82.0,79.0,29.93,SSW,200,0.0,0.0,92,0.00,,,0.55,,2013-06-07 13:52:00,
2013-06-07 10:02:00,82.0,79.0,29.93,SSW,204,0.0,0.0,92,0.00,,,0.55,,2013-06-07 14:02:00,
2013-06-07 10:12:00,82.0,79.0,29.93,SSW,204,0.0,0.0,92,0.00,,,0.55,,2013-06-07 14:12:00,
2013-06-07 10:23:00,82.0,79.0,29.93,SSW,198,0.0,0.0,92,0.00,,,0.55,,2013-06-07 14:23:00,
2013-06-07 10:33:00,82.0,79.0,29.93,South,182,0.0,0.0,91,0.00,,,0.55,,2013-06-07 14:33:00,
2013-06-07 10:42:00,82.0,79.0,29.93,South,182,0.0,0.0,91,0.00,,,0.55,,2013-06-07 14:42:00,
2013-06-07 10:52:00,82.0,79.0,29.94,SSW,196,0.0,0.0,91,0.00,,,0.55,,2013-06-07 14:52:00,
2013-06-07 11:03:00,82.0,79.0,29.94,South,183,0.0,0.0,91,0.00,,,0.55,,2013-06-07 15:03:00,
2013-06-07 11:12:00,82.0,79.0,29.94,South,183,0.0,0.0,91,0.00,,,0.55,,2013-06-07 15:12:00,
2013-06-07 11:23:00,82.0,79.0,29.94,South,180,0.0,0.0,91,0.00,,,0.55,,2013-06-07 15:23:00,
2013-06-07 11:33:00,82.0,79.0,29.94,South,173,0.0,0.0,91,0.00,,,0.55,,2013-06-07 15:33:00,
2013-06-07 11:43:00,82.0,79.0,29.94,South,173,0.0,0.0,91,0.00,,,0.55,,2013-06-07 15:43:00,
2013-06-07 11:53:00,83.0,80.0,29.95,SSW,193,0.0,0.0,91,0.00,,,0.55,,2013-06-07 15:53:00,
2013-06-07 12:03:00,83.0,80.0,29.96,SSW,203,0.0,0.0,91,0.00,,,0.55,,2013-06-07 16:03:00,
2013-06-07 12:13:00,83.0,80.0,29.96,SSW,203,0.0,0.0,91,0.00,,,0.55,,2013-06-07 16:13:00,
2013-06-07 12:22:00,84.0,81.0,29.95,SSW,198,0.0,0.0,91,0.00,,,0.55,,2013-06-07 16:22:00,
2013-06-07 12:33:00,84.0,81.0,29.95,South,177,0.0,0.0,90,0.00,,,0.55,,2013-06-07 16:33:00,
2013-06-07 12:43:00,84.0,81.0,29.95,South,177,0.0,0.0,90,0.00,,,0.55,,2013-06-07 16:43:00,
2013-06-07 12:53:00,84.0,81.0,29.95,South,180,0.0,0.0,90,0.00,,,0.55,,2013-06-07 16:53:00,
2013-06-07 13:03:00,84.0,81.0,29.94,SSW,200,0.0,0.0,90,0.00,,,0.55,,2013-06-07 17:03:00,
2013-06-07 13:13:00,84.0,81.0,29.94,SSW,200,0.0,0.0,90,0.00,,,0.55,,2013-06-07 17:13:00,
2013-06-07 13:23:00,85.0,81.0,29.94,SSW,196,0.0,0.0,89,0.00,,,0.55,,2013-06-07 17:23:00,
2013-06-07 13:32:00,85.0,81.0,29.94,South,186,0.0,0.0,88,0.00,,,0.55,,2013-06-07 17:32:00,
2013-06-07 13:43:00,85.0,81.0,29.94,South,186,0.0,0.0,88,0.00,,,0.55,,2013-06-07 17:43:00,
2013-06-07 13:52:00,85.0,81.0,29.94,SSW,192,0.0,0.0,88,0.00,,,0.55,,2013-06-07 17:52:00,
2013-06-07 14:08:00,85.0,81.0,29.94,South,184,0.0,0.0,88,0.00,,,0.55,,2013-06-07 18:08:00,
2013-06-07 14:20:00,85.0,81.0,29.94,South,184,0.0,0.0,88,0.00,,,0.55,,2013-06-07 18:20:00,
2013-06-07 14:26:00,85.0,81.0,29.94,SSW,198,0.0,0.0,88,0.00,,,0.55,,2013-06-07 18:26:00,
2013-06-07 14:45:00,86.0,82.0,29.93,SSW,192,0.0,0.0,87,0.00,,,0.55,,2013-06-07 18:45:00,
2013-06-07 15:08:00,85.0,81.0,29.92,SSW,192,0.0,0.0,87,0.00,,,0.55,,2013-06-07 19:08:00,
2013-06-07 15:15:00,85.0,81.0,29.92,SSW,192,0.0,0.0,87,0.00,,,0.55,,2013-06-07 19:15:00,
2013-06-07 15:29:00,86.0,81.0,29.92,SSW,199,0.0,0.0,86,0.00,,,0.55,,2013-06-07 19:29:00,
2013-06-07 15:37:00,86.0,81.0,29.92,South,188,0.0,0.0,85,0.00,,,0.55,,2013-06-07 19:37:00,
2013-06-07 15:59:00,86.0,81.0,29.92,SSW,202,0.0,0.0,86,0.00,,,0.55,,2013-06-07 19:59:00,
2013-06-07 16:07:00,85.0,80.0,29.92,SSW,210,0.0,0.0,85,0.00,,,0.55,,2013-06-07 20:07:00,
2013-06-07 16:26:00,85.0,81.0,29.92,WSW,241,0.0,0.0,87,0.00,,,0.55,,2013-06-07 20:26:00,
2013-06-07 16:38:00,83.0,78.0,29.92,WNW,283,0.0,0.0,84,0.00,,,0.55,,2013-06-07 20:38:00,
2013-06-07 16:58:00,83.0,77.0,29.92,West,276,0.0,0.0,81,0.00,,,0.55,,2013-06-07 20:58:00,
2013-06-07 17:05:00,83.0,77.0,29.91,WNW,294,0.0,0.0,81,0.00,,,0.55,,2013-06-07 21:05:00,
2013-06-07 17:19:00,83.0,77.0,29.91,WNW,294,0.0,0.0,81,0.00,,,0.55,,2013-06-07 21:19:00,
2013-06-07 17:39:00,84.0,78.0,29.90,NNW,335,0.0,0.0,81,0.00,,,0.55,,2013-06-07 21:39:00,
2013-06-07 17:45:00,84.0,78.0,29.90,NNW,335,0.0,0.0,81,0.00,,,0.55,,2013-06-07 21:45:00,
2013-06-07 18:02:00,84.0,77.0,29.91,NW,309,0.0,0.0,80,0.00,,,0.55,,2013-06-07 22:02:00,
2013-06-07 18:08:00,83.0,77.0,29.91,NW,318,0.0,0.0,81,0.00,,,0.55,,2013-06-07 22:08:00,
2013-06-07 18:28:00,83.0,77.0,29.90,NNW,346,0.0,0.0,82,0.00,,,0.55,,2013-06-07 22:28:00,
2013-06-07 18:47:00,83.0,77.0,29.91,NNW,328,0.0,0.0,81,0.00,,,0.55,,2013-06-07 22:47:00,
2013-06-07 19:00:00,82.0,76.0,29.92,WNW,302,0.0,0.0,83,0.00,,,0.55,,2013-06-07 23:00:00,
2013-06-07 19:09:00,82.0,77.0,29.93,WNW,284,0.0,0.0,84,0.00,,,0.55,,2013-06-07 23:09:00,
2013-06-07 19:19:00,82.0,77.0,29.93,WNW,284,0.0,0.0,84,0.00,,,0.55,,2013-06-07 23:19:00,
2013-06-07 19:30:00,80.0,76.0,29.96,WSW,238,0.0,0.0,87,0.01,,,0.23,,2013-06-07 23:30:00,
2013-06-07 19:37:00,79.0,75.0,29.96,WSW,243,0.0,0.0,89,0.02,,,0.24,,2013-06-07 23:37:00,
2013-06-07 19:50:00,79.0,75.0,29.96,WSW,243,0.0,0.0,89,0.02,,,0.24,,2013-06-07 23:50:00,
2013-06-07 20:12:00,78.0,75.0,29.94,West,277,0.0,0.0,90,0.04,,,0.26,,2013-06-08 00:12:00,
2013-06-07 20:18:00,77.0,74.0,29.94,NNW,330,0.0,0.0,91,0.06,,,0.10,,2013-06-08 00:18:00,
2013-06-07 20:29:00,77.0,74.0,29.94,NNW,330,0.0,0.0,91,0.06,,,0.10,,2013-06-08 00:29:00,
2013-06-07 20:34:00,77.0,74.0,29.94,NNW,346,0.0,0.0,91,0.07,,,0.12,,2013-06-08 00:34:00,
2013-06-07 20:45:00,77.0,74.0,29.94,NNW,346,0.0,0.0,91,0.07,,,0.12,,2013-06-08 00:45:00,
2013-06-07 21:01:00,77.0,74.0,29.94,NNE,25,0.0,0.0,92,0.08,,,0.14,,2013-06-08 01:01:00,
2013-06-07 21:07:00,76.0,74.0,29.94,ENE,75,0.0,0.0,92,0.08,,,0.15,,2013-06-08 01:07:00,
2013-06-07 21:29:00,76.0,74.0,29.94,ENE,75,0.0,0.0,92,0.06,,,0.14,,2013-06-08 01:29:00,
2013-06-07 21:39:00,76.0,74.0,29.94,NE,42,0.0,0.0,93,0.04,,,0.14,,2013-06-08 01:39:00,
2013-06-07 22:09:00,78.0,76.0,29.94,East,80,0.0,0.0,93,0.01,,,0.14,,2013-06-08 02:09:00,
2013-06-07 22:15:00,78.0,76.0,29.94,East,80,0.0,0.0,93,0.01,,,0.14,,2013-06-08 02:15:00,
2013-06-07 22:29:00,78.0,76.0,29.95,East,83,0.0,0.0,94,0.00,,,0.13,,2013-06-08 02:29:00,
2013-06-07 22:35:00,78.0,76.0,29.96,East,100,0.0,0.0,94,0.00,,,0.13,,2013-06-08 02:35:00,
2013-06-07 22:47:00,77.0,75.0,29.97,East,88,0.0,0.0,94,0.00,,,0.13,,2013-06-08 02:47:00,
2013-06-07 22:59:00,77.0,75.0,29.97,East,88,0.0,0.0,94,0.00,,,0.13,,2013-06-08 02:59:00,
2013-06-07 23:09:00,77.0,75.0,29.97,East,81,0.0,0.0,94,0.00,,,0.13,,2013-06-08 03:09:00,
2013-06-07 23:17:00,77.0,75.0,29.97,East,81,0.0,0.0,94,0.00,,,0.13,,2013-06-08 03:17:00,
2013-06-07 23:27:00,78.0,76.0,29.98,East,81,0.0,0.0,94,0.00,,,0.13,,2013-06-08 03:27:00,
2013-06-07 23:52:00,78.0,76.0,29.98,ESE,111,0.0,0.0,95,0.00,,,0.13,,2013-06-08 03:52:00,